Time,TemperatureF,DewpointF,PressureIn,WindDirection,WindDirectionDegrees,WindSpeedMPH,WindSpeedGustMPH,Humidity,HourlyPrecipIn,Conditions,Clouds,dailyrainin,SolarRadiationWatts/m^2,SoftwareType,DateUTC
2016-07-23 00:05:00,78.1,71.4,30.04,East,87,0.0,0.0,80,0.00,,,0.00,0,wxd,2016-07-23 04:05:00,
2016-07-23 00:10:00,78.1,71.4,30.04,East,87,0.0,0.0,80,0.00,,,0.00,0,wxd,2016-07-23 04:10:00,
2016-07-23 00:15:00,78.1,71.8,30.04,East,87,0.0,0.0,81,0.00,,,0.00,0,wxd,2016-07-23 04:15:00,
2016-07-23 00:20:00,78.1,71.8,30.04,East,87,0.0,0.0,81,0.00,,,0.00,0,wxd,2016-07-23 04:20:00,
2016-07-23 00:25:00,78.1,72.1,30.04,East,87,0.0,0.0,82,0.00,,,0.00,0,wxd,2016-07-23 04:25:00,
2016-07-23 00:30:00,78.1,72.1,30.04,East,87,0.0,0.0,82,0.00,,,0.00,0,wxd,2016-07-23 04:30:00,
2016-07-23 00:35:00,78.1,72.5,30.04,East,87,0.0,0.0,83,0.00,,,0.00,0,wxd,2016-07-23 04:35:00,
2016-07-23 00:40:00,78.1,72.1,30.03,East,87,0.0,0.0,82,0.00,,,0.00,0,wxd,2016-07-23 04:40:00,
2016-07-23 00:45:00,77.9,72.3,30.03,East,87,0.0,0.0,83,0.00,,,0.00,0,wxd,2016-07-23 04:45:00,
2016-07-23 00:50:00,77.9,72.3,30.03,East,87,0.0,0.0,83,0.00,,,0.00,0,wxd,2016-07-23 04:50:00,
2016-07-23 00:55:00,77.9,71.9,30.03,East,87,0.0,0.0,82,0.00,,,0.00,0,wxd,2016-07-23 04:55:00,
2016-07-23 01:00:00,77.9,71.9,30.03,East,87,0.0,0.0,82,0.00,,,0.00,0,wxd,2016-07-23 05:00:00,
2016-07-23 01:05:00,77.7,71.8,30.03,East,87,0.0,0.0,82,0.00,,,0.00,0,wxd,2016-07-23 05:05:00,
2016-07-23 01:10:00,77.7,71.4,30.03,East,87,0.0,0.0,81,0.00,,,0.00,0,wxd,2016-07-23 05:10:00,
2016-07-23 01:15:00,77.7,71.4,30.03,East,87,0.0,0.0,81,0.00,,,0.00,0,wxd,2016-07-23 05:15:00,
2016-07-23 01:20:00,77.7,71.4,30.03,East,87,0.0,0.0,81,0.00,,,0.00,0,wxd,2016-07-23 05:20:00,
2016-07-23 01:25:00,77.7,71.4,30.03,East,87,0.0,0.0,81,0.00,,,0.00,0,wxd,2016-07-23 05:25:00,
2016-07-23 01:30:00,77.7,71.4,30.03,East,87,0.0,0.0,81,0.00,,,0.00,0,wxd,2016-07-23 05:30:00,
2016-07-23 01:35:00,77.6,71.3,30.03,East,87,0.0,0.0,81,0.00,,,0.00,0,wxd,2016-07-23 05:35:00,
2016-07-23 01:40:00,77.6,70.9,30.03,East,87,0.0,0.0,80,0.00,,,0.00,0,wxd,2016-07-23 05:40:00,
2016-07-23 01:45:00,77.6,70.9,30.03,East,87,0.0,0.0,80,0.00,,,0.00,0,wxd,2016-07-23 05:45:00,
2016-07-23 01:50:00,77.4,70.7,30.03,East,87,0.0,0.0,80,0.00,,,0.00,0,wxd,2016-07-23 05:50:00,
2016-07-23 01:55:00,77.4,70.7,30.03,East,87,0.0,0.0,80,0.00,,,0.00,0,wxd,2016-07-23 05:55:00,
2016-07-23 02:00:00,77.4,70.7,30.03,East,87,0.0,0.0,80,0.00,,,0.00,0,wxd,2016-07-23 06:00:00,
2016-07-23 02:05:00,77.4,70.7,30.03,East,87,0.0,0.0,80,0.00,,,0.00,0,wxd,2016-07-23 06:05:00,
2016-07-23 02:10:00,77.4,70.7,30.03,East,87,0.0,0.0,80,0.00,,,0.00,0,wxd,2016-07-23 06:10:00,
2016-07-23 02:15:00,77.2,70.5,30.03,East,87,0.0,0.0,80,0.00,,,0.00,0,wxd,2016-07-23 06:15:00,
2016-07-23 02:20:00,77.2,70.9,30.03,East,87,0.0,0.0,81,0.00,,,0.00,0,wxd,2016-07-23 06:20:00,
2016-07-23 02:25:00,77.2,70.9,30.02,East,87,0.0,0.0,81,0.00,,,0.00,0,wxd,2016-07-23 06:25:00,
2016-07-23 02:30:00,77.2,71.3,30.02,East,87,0.0,0.0,82,0.00,,,0.00,0,wxd,2016-07-23 06:30:00,
2016-07-23 02:35:00,77.0,71.1,30.02,East,87,0.0,0.0,82,0.00,,,0.00,0,wxd,2016-07-23 06:35:00,
2016-07-23 02:40:00,77.0,71.1,30.02,East,87,0.0,0.0,82,0.00,,,0.00,0,wxd,2016-07-23 06:40:00,
2016-07-23 02:45:00,77.0,71.1,30.02,East,87,0.0,0.0,82,0.00,,,0.00,0,wxd,2016-07-23 06:45:00,
2016-07-23 02:50:00,77.0,71.1,30.02,East,87,0.0,0.0,82,0.00,,,0.00,0,wxd,2016-07-23 06:50:00,
2016-07-23 02:55:00,77.0,71.4,30.02,East,87,0.0,0.0,83,0.00,,,0.00,0,wxd,2016-07-23 06:55:00,
2016-07-23 03:00:00,77.0,71.8,30.02,East,87,0.0,0.0,84,0.00,,,0.00,0,wxd,2016-07-23 07:00:00,
2016-07-23 03:05:00,77.0,71.4,30.02,East,87,0.0,0.0,83,0.00,,,0.00,0,wxd,2016-07-23 07:05:00,
2016-07-23 03:15:00,76.8,71.6,30.01,East,87,0.0,0.0,84,0.00,,,0.00,0,wxd,2016-07-23 07:15:00,
2016-07-23 03:20:00,76.8,71.6,30.01,East,87,0.0,0.0,84,0.00,,,0.00,0,wxd,2016-07-23 07:20:00,
2016-07-23 03:25:00,76.7,71.8,30.01,East,87,0.0,0.0,85,0.00,,,0.00,0,wxd,2016-07-23 07:25:00,
2016-07-23 03:30:00,76.5,71.6,30.01,East,87,0.0,0.0,85,0.00,,,0.00,0,wxd,2016-07-23 07:30:00,
2016-07-23 03:35:00,76.5,71.6,30.01,East,87,0.0,0.0,85,0.00,,,0.00,0,wxd,2016-07-23 07:35:00,
2016-07-23 03:40:00,76.5,71.6,30.00,East,87,0.0,0.0,85,0.00,,,0.00,0,wxd,2016-07-23 07:40:00,
2016-07-23 03:45:00,76.3,71.8,30.00,East,87,0.0,0.0,86,0.00,,,0.00,0,wxd,2016-07-23 07:45:00,
2016-07-23 03:50:00,76.1,71.6,30.00,East,87,0.0,0.0,86,0.00,,,0.00,0,wxd,2016-07-23 07:50:00,
2016-07-23 03:55:00,76.1,71.9,30.00,East,87,0.0,0.0,87,0.00,,,0.00,0,wxd,2016-07-23 07:55:00,
2016-07-23 04:00:00,76.0,71.8,30.00,East,87,0.0,0.0,87,0.00,,,0.00,0,wxd,2016-07-23 08:00:00,
2016-07-23 04:05:00,76.0,71.8,30.00,East,87,0.0,0.0,87,0.00,,,0.00,0,wxd,2016-07-23 08:05:00,
2016-07-23 04:10:00,75.8,71.6,30.00,East,87,0.0,0.0,87,0.00,,,0.00,0,wxd,2016-07-23 08:10:00,
2016-07-23 04:15:00,75.8,71.6,30.00,East,87,0.0,0.0,87,0.00,,,0.00,0,wxd,2016-07-23 08:15:00,
2016-07-23 04:20:00,75.6,71.1,30.00,East,87,0.0,0.0,86,0.00,,,0.00,0,wxd,2016-07-23 08:20:00,
2016-07-23 04:25:00,75.4,70.9,30.00,East,87,0.0,0.0,86,0.00,,,0.00,0,wxd,2016-07-23 08:25:00,
2016-07-23 04:30:00,75.4,70.9,30.00,East,87,0.0,0.0,86,0.00,,,0.00,0,wxd,2016-07-23 08:30:00,
2016-07-23 04:35:00,75.3,70.5,30.00,East,87,0.0,0.0,85,0.00,,,0.00,0,wxd,2016-07-23 08:35:00,
2016-07-23 04:40:00,75.1,70.3,30.00,East,87,0.0,0.0,85,0.00,,,0.00,0,wxd,2016-07-23 08:40:00,
2016-07-23 04:45:00,74.9,70.1,30.00,East,87,0.0,0.0,85,0.00,,,0.00,0,wxd,2016-07-23 08:45:00,
2016-07-23 04:50:00,74.9,70.4,30.00,East,87,0.0,0.0,86,0.00,,,0.00,0,wxd,2016-07-23 08:50:00,
2016-07-23 04:55:00,74.9,70.4,30.00,East,87,0.0,0.0,86,0.00,,,0.00,0,wxd,2016-07-23 08:55:00,
2016-07-23 05:00:00,74.7,70.2,30.00,East,87,0.0,0.0,86,0.00,,,0.00,0,wxd,2016-07-23 09:00:00,
2016-07-23 05:05:00,74.6,70.1,30.00,East,87,0.0,0.0,86,0.00,,,0.00,0,wxd,2016-07-23 09:05:00,
2016-07-23 05:10:00,74.6,70.1,30.00,East,87,0.0,0.0,86,0.00,,,0.00,0,wxd,2016-07-23 09:10:00,
2016-07-23 05:15:00,74.6,70.1,30.00,East,87,0.0,0.0,86,0.00,,,0.00,0,wxd,2016-07-23 09:15:00,
2016-07-23 05:20:00,74.6,70.1,30.00,East,87,0.0,0.0,86,0.00,,,0.00,0,wxd,2016-07-23 09:20:00,
2016-07-23 05:25:00,74.6,70.8,30.01,East,87,0.0,0.0,88,0.00,,,0.00,0,wxd,2016-07-23 09:25:00,
2016-07-23 05:30:00,74.6,70.8,30.01,East,87,0.0,0.0,88,0.00,,,0.00,0,wxd,2016-07-23 09:30:00,
2016-07-23 05:35:00,74.7,70.9,30.01,East,87,0.0,0.0,88,0.00,,,0.00,0,wxd,2016-07-23 09:35:00,
2016-07-23 05:40:00,74.6,70.8,30.01,East,87,0.0,0.0,88,0.00,,,0.00,0,wxd,2016-07-23 09:40:00,
2016-07-23 05:45:00,74.4,70.6,30.01,East,87,0.0,0.0,88,0.00,,,0.00,0,wxd,2016-07-23 09:45:00,
2016-07-23 05:50:00,74.4,70.6,30.01,East,87,0.0,0.0,88,0.00,,,0.00,0,wxd,2016-07-23 09:50:00,
2016-07-23 05:55:00,74.2,70.7,30.01,East,87,0.0,0.0,89,0.00,,,0.00,0,wxd,2016-07-23 09:55:00,
2016-07-23 06:00:00,74.2,70.7,30.01,East,87,0.0,0.0,89,0.00,,,0.00,0,wxd,2016-07-23 10:00:00,
2016-07-23 06:05:00,74.0,70.5,30.01,East,87,0.0,0.0,89,0.00,,,0.00,0,wxd,2016-07-23 10:05:00,
2016-07-23 06:15:00,73.9,70.4,30.01,East,87,0.0,0.0,89,0.00,,,0.00,0,wxd,2016-07-23 10:15:00,
2016-07-23 06:20:00,73.7,70.2,30.01,East,87,0.0,0.0,89,0.00,,,0.00,0,wxd,2016-07-23 10:20:00,
2016-07-23 06:25:00,73.7,70.2,30.01,East,87,0.0,0.0,89,0.00,,,0.00,0,wxd,2016-07-23 10:25:00,
2016-07-23 06:30:00,73.7,70.6,30.01,East,87,0.0,0.0,90,0.00,,,0.00,0,wxd,2016-07-23 10:30:00,
2016-07-23 06:40:00,73.7,70.6,30.02,East,87,0.0,0.0,90,0.00,,,0.00,0,wxd,2016-07-23 10:40:00,
2016-07-23 06:45:00,73.7,70.9,30.02,East,87,0.0,0.0,91,0.00,,,0.00,0,wxd,2016-07-23 10:45:00,
2016-07-23 06:50:00,73.7,70.9,30.02,East,87,0.0,0.0,91,0.00,,,0.00,5,wxd,2016-07-23 10:50:00,
2016-07-23 06:55:00,73.7,70.9,30.02,East,87,0.0,0.0,91,0.00,,,0.00,5,wxd,2016-07-23 10:55:00,
2016-07-23 07:00:00,73.7,71.2,30.02,East,87,0.0,0.0,92,0.00,,,0.00,7,wxd,2016-07-23 11:00:00,
2016-07-23 07:05:00,73.7,71.2,30.02,East,87,0.0,0.0,92,0.00,,,0.00,9,wxd,2016-07-23 11:05:00,
2016-07-23 07:10:00,73.7,71.2,30.02,East,87,0.0,0.0,92,0.00,,,0.00,11,wxd,2016-07-23 11:10:00,
2016-07-23 07:15:00,73.7,71.2,30.02,East,87,0.0,0.0,92,0.00,,,0.00,12,wxd,2016-07-23 11:15:00,
2016-07-23 07:20:00,73.7,70.9,30.02,East,87,0.0,0.0,91,0.00,,,0.00,14,wxd,2016-07-23 11:20:00,
2016-07-23 07:30:00,73.7,71.2,30.02,East,87,0.0,0.0,92,0.00,,,0.00,18,wxd,2016-07-23 11:30:00,